Logan, UT

3:11 AM MST on November 15, 2019 (GMT -0700)
Logan-Cache

Weather History for KLGU - August, 2019

Change the Weather History Date:

Friday, August 30, 2019

  Actual Average Record
Temperature  
Mean Temperature 72 °F -  
Max Temperature 91 °F 85 °F 94 °F (1981)
Min Temperature 55 °F 49 °F 34 °F (1964)
Cooling Degree Days 8    
Growing Degree Days 22 (Base 50)    
Moisture  
Dew Point 49 °F    
Average Humidity 47    
Maximum Humidity 81    
Minimum Humidity 19    
Precipitation  
Precipitation 0.00 in - - ()
Sea Level Pressure  
Sea Level Pressure 29.91 in    
Wind  
Wind Speed 5 mph ()    
Max Wind Speed 9 mph    
Max Gust Speed -    
Visibility 10.0 miles    
Events      
Averages and records for this station are not official NWS values.
T = Trace of Precipitation, MM = Missing Value Source: Averaged Metar Reports

Daily Weather History Graph

Daily Weather History Graph

Search for Another Location

Airport or City:

Astronomy

Aug. 30, 2019 Rise Set
Actual Time 6:51 AM MDT 8:04 PM MDT
Civil Twilight 6:22 AM MDT 8:32 PM MDT
Nautical Twilight 5:47 AM MDT 9:07 PM MDT
Astronomical Twilight 5:11 AM MDT 9:43 PM MDT
Moon 6:55 AM MDT (8/30) 8:43 PM MDT (8/30)
Length of Visible Light 14h 10m
Length of Day
13h 13m
New Moon, 0% of the Moon is Illuminated
Aug 30
New Moon
Sep 5
First Quarter
Sep 13
Full
Sep 21
Last Quarter
Sep 28
New

Hourly Weather History & Observations

Time (MDT) Temp. Dew Point Humidity Pressure Visibility Wind Dir Wind Speed Gust Speed Precip Events Conditions
12:51 AM 70.0 °F 48.9 °F 47% 29.89 in 10.0 mi SSE 8.1 mph - N/A   Clear
1:51 AM 66.9 °F 53.1 °F 61% 29.94 in 10.0 mi North - - N/A   Partly Cloudy
2:51 AM 70.0 °F 50.0 °F 49% 29.88 in 10.0 mi SSW 9.2 mph - N/A   Clear
3:51 AM 70.0 °F 48.9 °F 47% 29.88 in 10.0 mi South 9.2 mph - N/A   Clear
4:51 AM 57.9 °F 51.1 °F 78% 29.91 in 10.0 mi NNW 6.9 mph - N/A   Clear
5:51 AM 57.9 °F 52.0 °F 81% 29.93 in 10.0 mi NNE 8.1 mph - N/A   Clear
6:51 AM 55.9 °F 50.0 °F 80% 29.94 in 10.0 mi NW 3.5 mph - N/A   Clear
7:51 AM 57.9 °F 51.1 °F 78% 29.97 in 10.0 mi Calm Calm - N/A   Clear
8:51 AM 64.0 °F 51.1 °F 63% 29.97 in 10.0 mi Calm Calm - N/A   Clear
9:51 AM 70.0 °F 52.0 °F 53% 29.97 in 10.0 mi Calm Calm - N/A   Clear
10:51 AM 73.9 °F 53.1 °F 48% 29.96 in 10.0 mi Calm Calm - N/A   Clear
11:51 AM 79.0 °F 55.0 °F 44% 29.94 in 10.0 mi North 6.9 mph - N/A   Clear
12:51 PM 82.9 °F 51.1 °F 33% 29.92 in 10.0 mi Calm Calm - N/A   Clear
1:51 PM 87.1 °F 48.0 °F 26% 29.90 in 10.0 mi Variable 3.5 mph - N/A   Clear
2:51 PM 89.1 °F 44.1 °F 21% 29.87 in 10.0 mi Variable 3.5 mph - N/A   Clear
3:51 PM 90.0 °F 44.1 °F 20% 29.86 in 10.0 mi South 8.1 mph - N/A   Clear
4:51 PM 90.0 °F 43.0 °F 19% 29.87 in 10.0 mi Calm Calm - N/A   Clear
5:51 PM 89.1 °F 41.0 °F 19% 29.86 in 10.0 mi SSW 3.5 mph - N/A   Clear
6:51 PM 88.0 °F 44.1 °F 22% 29.86 in 10.0 mi ENE 4.6 mph - N/A   Clear
7:51 PM 84.9 °F 46.9 °F 27% 29.86 in 10.0 mi NE 4.6 mph - N/A   Clear
8:51 PM 72.0 °F 52.0 °F 49% 29.91 in 10.0 mi NNE 8.1 mph - N/A   Clear
9:51 PM 71.1 °F 48.0 °F 44% 29.91 in 10.0 mi North 6.9 mph - N/A   Clear
10:51 PM 71.1 °F 50.0 °F 47% 29.93 in 10.0 mi South 4.6 mph - N/A   Clear
11:51 PM 63.0 °F 48.9 °F 60% 29.95 in 10.0 mi Calm Calm - N/A   Clear